Verbier, Switzerland 16 day weather forecast

Slopes altitude range 1500 m - 3330m

Number of lifts: 89 Pistes: 412km

In some cases the lift and piste totals shown are for the ski domain (e.g. Three Valleys) rather than individual resort (e.g. Courchevel)

Overview

The 16 day weather forecast is fully updated 4 times every day.

    • Sat 18 AUG 2018
    • Sat 18
    • 9C 15C
    • Sun 19 AUG 2018
    • Sun 19
    • 9C 18C
    • Mon 20 AUG 2018
    • Mon 20
    • 10C 17C
    • Tue 21 AUG 2018
    • Tue 21
    • 11C 18C
    • Wed 22 AUG 2018
    • Wed 22
    • 11C 18C
    • Thu 23 AUG 2018
    • Thu 23
    • 11C 17C
    • Fri 24 AUG 2018
    • Fri 24
    • 10C 13C
    • Sat 25 AUG 2018
    • Sat 25
    • 5C 12C
    • Sun 26 AUG 2018
    • Sun 26
    • 4C 11C
    • Mon 27 AUG 2018
    • Mon 27
    • 6C 14C
    • Tue 28 AUG 2018
    • Tue 28
    • 9C 19C
    • Wed 29 AUG 2018
    • Wed 29
    • 10C 21C
    • Thu 30 AUG 2018
    • Thu 30
    • 12C 17C
    • Fri 31 AUG 2018
    • Fri 31
    • 10C 18C
    • Sat 01 SEP 2018
    • Sat 01
    • 10C 19C
    • Sun 02 SEP 2018
    • Sun 02
    • 8C 12C

Date:

Time Type 0°C level Temp Chill Snow Cloud Speed Gust Dir Press
12:00 3974m 15°C 15_5 0cm 37% 5mph 5mph 1020mB
15:00 4014m 15°C 15_5 0cm 81% 5mph 6mph 1020mB
18:00 4000m 15°C 15_4 0cm 90% 4mph 6mph 1021mB
21:00 4067m 10°C 10_3 0cm 98% 3mph 4mph 1023mB
0:00 4101m 8°C 8_4 0cm 91% 4mph 5mph 1023mB
3:00 4090m 7°C 7_5 0cm 30% 5mph 6mph 1022mB
6:00 4076m 7°C 7_5 0cm 45% 5mph 5mph 1022mB
9:00 4082m 9°C 9_2 0cm 87% 2mph 2mph 1022mB
12:00 3988m 18°C 18_4 0cm 87% 4mph 2mph 1021mB
15:00 4151m 18°C 18_5 0cm 93% 5mph 4mph 1020mB
18:00 4120m 18°C 18_4 0cm 96% 4mph 5mph 1021mB
21:00 4153m 10°C 10_3 0cm 98% 3mph 4mph 1022mB
0:00 4119m 8°C 8_3 0cm 94% 3mph 4mph 1022mB
3:00 4131m 7°C 7_3 0cm 81% 3mph 4mph 1021mB
6:00 4138m 7°C 7_3 0cm 86% 3mph 3mph 1021mB
9:00 4157m 10°C 10_4 0cm 85% 4mph 3mph 1021mB
12:00 4209m 17°C 17_7 0cm 87% 7mph 6mph 1019mB
15:00 4284m 17°C 17_7 0cm 96% 7mph 8mph 1018mB
18:00 4285m 17°C 17_5 0cm 97% 5mph 8mph 1019mB
21:00 4338m 10°C 10_3 0cm 99% 3mph 3mph 1021mB
0:00 4361m 9°C 9_4 0cm 98% 4mph 4mph 1021mB
3:00 4326m 8°C 8_4 0cm 49% 4mph 5mph 1021mB
6:00 4278m 8°C 8_5 0cm 31% 5mph 5mph 1021mB
9:00 4290m 11°C 11_1 0cm 21% 1mph 2mph 1020mB
12:00 4275m 18°C 18_4 0cm 45% 4mph 4mph 1019mB
15:00 4294m 16°C 16_5 0cm 96% 5mph 6mph 1018mB
18:00 4268m 16°C 16_1 0cm 97% 1mph 2mph 1019mB
21:00 4273m 11°C 11_5 0cm 100% 5mph 6mph 1020mB
0:00 4269m 10°C 10_5 0cm 99% 5mph 6mph 1021mB
3:00 4209m 9°C 9_5 0cm 97% 5mph 6mph 1020mB
6:00 4148m 9°C 9_5 0cm 96% 5mph 6mph 1021mB
9:00 4144m 11°C 11_2 0cm 94% 2mph 3mph 1020mB
12:00 4210m 18°C 18_2 0cm 95% 2mph 2mph 1018mB
15:00 4170m 17°C 17_3 0cm 99% 3mph 3mph 1018mB
18:00 4150m 17°C 17_1 0cm 99% 1mph 1mph 1018mB
21:00 4160m 11°C 11_4 0cm 99% 4mph 4mph 1019mB
0:00 4141m 10°C 10_4 0cm 99% 4mph 4mph 1019mB
3:00 4079m 10°C 10_4 0cm 99% 4mph 4mph 1018mB
6:00 4072m 9°C 9_4 0cm 99% 4mph 4mph 1018mB
9:00 4049m 11°C 11_2 0cm 99% 2mph 2mph 1017mB
12:00 4112m 17°C 17_4 0cm 98% 4mph 5mph 1015mB
15:00 4080m 17°C 17_5 0cm 98% 5mph 6mph 1014mB
18:00 3961m 17°C 17_2 0cm 99% 2mph 3mph 1015mB
21:00 3938m 10°C 10_2 0cm 99% 2mph 2mph 1015mB
0:00 3911m 10°C 10_4 0cm 99% 4mph 5mph 1015mB
3:00 3805m 9°C 9_4 0cm 99% 4mph 4mph 1015mB
6:00 3812m 8°C 8_3 0cm 98% 3mph 3mph 1016mB
9:00 3826m 10°C 10_4 0cm 94% 4mph 4mph 1016mB
12:00 3897m 13°C 13_6 0cm 71% 6mph 7mph 1015mB
15:00 3767m 12°C 12_6 0cm 90% 6mph 7mph 1014mB
18:00 3633m 12°C 12_5 0cm 94% 5mph 6mph 1015mB
21:00 3494m 8°C 8_4 0cm 97% 4mph 5mph 1017mB
0:00 3709m 6°C 6_4 0cm 98% 4mph 4mph 1017mB
3:00 3686m 6°C 6_3 0cm 99% 3mph 4mph 1016mB
6:00 3588m 5°C 5_4 0cm 99% 4mph 4mph 1016mB
9:00 3590m 5°C 5_4 0cm 96% 4mph 4mph 1015mB
12:00 3540m 12°C 12_6 0cm 94% 6mph 6mph 1014mB
15:00 3441m 12°C 12_6 0cm 93% 6mph 7mph 1012mB
18:00 3383m 12°C 12_5 0cm 93% 5mph 5mph 1014mB
21:00 3385m 4°C 4_2 0cm 95% 2mph 2mph 1016mB
0:00 3435m 4°C 4_1 0cm 97% 1mph 1mph 1016mB
3:00 3270m 4°C 4_1 0cm 97% 1mph 1mph 1015mB
6:00 3194m 3°C 3_2 0cm 93% 2mph 2mph 1016mB
9:00 3082m 4°C 4_5 0cm 68% 5mph 5mph 1015mB
12:00 3152m 11°C 11_7 0cm 66% 7mph 6mph 1014mB
15:00 3224m 11°C 11_8 0cm 71% 8mph 8mph 1014mB
18:00 3206m 11°C 11_5 0cm 66% 5mph 7mph 1015mB
21:00 3454m 3°C 3_2 0cm 17% 2mph 2mph 1018mB
0:00 3471m 2°C 2_2 0cm 8% 2mph 3mph 1018mB
3:00 3441m 2°C 2_1 0cm 0% 1mph 2mph 1018mB
6:00 3558m 2°C 2_2 0cm 0% 2mph 3mph 1019mB
9:00 3565m 6°C 6_6 0cm 0% 6mph 6mph 1019mB
12:00 3705m 14°C 14_7 0cm 0% 7mph 6mph 1018mB
15:00 3874m 14°C 14_7 0cm 0% 7mph 6mph 1017mB
18:00 4093m 15°C 15_4 0cm 0% 4mph 5mph 1019mB
21:00 4332m 6°C 6_3 0cm 62% 3mph 4mph 1021mB
0:00 4300m 6°C 6_5 0cm 78% 5mph 6mph 1021mB
3:00 4370m 6°C 6_5 0cm 45% 5mph 6mph 1021mB
6:00 4400m 5°C 5_5 0cm 23% 5mph 6mph 1021mB
Afternoon 0mm 0 4549m 19°C 19_2 0cm 8% 2mph 4mph 1020mB
Morning 0mm 0 4444m 8°C 8_6 0cm 13% 6mph 7mph 1022mB
Afternoon 0mm 0 4424m 21°C 21_2 0cm 21% 2mph 3mph 1020mB
Morning 0.161458mm 1.875 4229m 11°C 11_4 0cm 84% 4mph 5mph 1022mB
Afternoon 1.28125mm 13 3963m 17°C 17_3 0cm 99% 3mph 4mph 1020mB
Morning 0.078125mm 0.3125 3966m 8°C 8_2 0cm 55% 2mph 3mph 1021mB
Afternoon 0.21875mm 2.625 4079m 18°C 18_5 0cm 45% 5mph 7mph 1019mB
Morning 0.0104167mm 0.125 3987m 7°C 7_4 0cm 32% 4mph 5mph 1018mB
Afternoon 0.015625mm 0.1875 3884m 19°C 19_3 0cm 32% 3mph 4mph 1012mB
Morning 0.359375mm 0.8125 3514m 9°C 9_8 0cm 82% 8mph 15mph 1009mB
Afternoon 0.453125mm 0.25 3434m 12°C 12_7 0cm 84% 7mph 15mph 1004mB
Morning 0.15625mm 0 2740m 3°C 3_6 0cm 81% 6mph 13mph 1007mB

16 day outlook at a glance

Forecast issued: 18/08/2018 18:53:25

Chat

Your comments and questions. In a resort? Let us know what it's like!


Characters left 250

For terms and conditions see Readers Comments on the Cookie and privacy policy page.